Regional Weather Roundup
Issued by NWS Kansas City/Pleasant Hill, MO

Home | Current Version | Previous Version | Text Only | Print | Product List | Glossary On
Versions: 1 2 3 4 5 6 7 8 9 10 11 12 13 14 15 16 17 18 19 20 21 22 23 24 25 26 27 28 29 30 31 32 33 34 35 36 37 38 39 40 41 42 43 44 45 46 47 48 49 50
000
ASUS43 KEAX 241211
RWREAX

WEATHER ROUNDUP FOR EASTERN KANSAS AND NORTHWEST MISSOURI
NATIONAL WEATHER SERVICE KANSAS CITY/PLEASANT HILL MO
700 AM CDT THU APR 24 2014

KSZ040-057-103>105-MOZ028-029-037-043-241300-
...KANSAS CITY METROPOLITAN AREA...

CITY           SKY/WX    TMP DP  RH WIND       PRES   REMARKS
K.C. INTL      LGT RAIN  63  51  65 SE9       29.66R
6HR MIN TEMP:  63; 6HR MAX TEMP:  68; 6HR PCP: TRACE;

K.C. DOWNTOWN  LGT RAIN  66  50  56 SE7       29.66R
6HR MIN TEMP:  63; 6HR MAX TEMP:  70; 6HR PCP:  0.02;

LEES SUMMIT    CLOUDY    63  48  58 S6        29.67S
6HR MIN TEMP:  62; 6HR MAX TEMP:  67; 6HR PCP: TRACE;

OLATHE - IXD   LGT RAIN  61  51  70 E3        29.68R
6HR MIN TEMP:  61; 6HR MAX TEMP:  67; 6HR PCP: TRACE;

OLATHE - OJC   LGT RAIN  61  49  64 SE8       29.66R
6HR MIN TEMP:  61; 6HR MAX TEMP:  66; 6HR PCP:  0.01;

LAWRENCE       LGT RAIN  64  59  83 S8        29.64S

$$

MOZ001>008-011>017-020>025-030>033-038>040-044>046-053-054-241300-
...NORTHERN AND CENTRAL MISSOURI...

CITY           SKY/WX    TMP DP  RH WIND       PRES   REMARKS
ST. JOSEPH     LGT RAIN  64  52  64 S13       29.62S
6HR MIN TEMP:  63; 6HR MAX TEMP:  68; 6HR PCP:  0.03;

MOSBY          CLOUDY    61  52  72 SE6       29.67S
WARRENSBURG    CLOUDY   N/A N/A N/A SE9       29.69F
WHITEMAN AFB   CLOUDY    62  37  39 S7        29.69R
6HR MIN TEMP:  62; 6HR MAX TEMP:  65;

CLINTON        CLOUDY    63  46  55 SE12      29.67R
SEDALIA        CLOUDY    63  41  44 S14       29.70S
6HR MIN TEMP:  62; 6HR MAX TEMP:  66; 6HR PCP: TRACE;

WARSAW         NOT AVBL
MARSHALL         N/A     64  43  45 CALM      29.74S
CHILLICOTHE      N/A     60  43  53 SE8       29.70F
6HR MIN TEMP:  57; 6HR MAX TEMP:  62;

MOBERLY        CLOUDY    55  37  50 SE14      29.74F
KIRKSVILLE     CLOUDY    53  38  56 SE8       29.77R
6HR MIN TEMP:  52; 6HR MAX TEMP:  54;


$$

MOZ041-047>049-056>058-063>065-088>090-097-241300-
...EASTERN AND SOUTHERN MISSOURI...

CITY           SKY/WX    TMP DP  RH WIND       PRES   REMARKS
ST. LOUIS INTL MOCLDY    55  34  45 SE16      29.88S
6HR MIN TEMP:  53; 6HR MAX TEMP:  58;

SPIRIT OF STL  MOCLDY    53  34  48 E6        29.86S
COLUMBIA       CLOUDY    57  37  47 SE14      29.75F
JEFFERSON CITY CLOUDY    59  36  42 SE12      29.76S
MEXICO         CLOUDY    50  39  66 SE13      29.77S
HANNIBAL       CLOUDY    57  28  33 SE13G21   29.80R
ROLLA          CLOUDY    57  34  41 SE18G26   29.77F
LEBANON        CLOUDY    59  37  44 SE9       29.77S
OSAGE BEACH    CLOUDY    59  36  41 SE8       29.77F
SPRINGFIELD    MOCLDY    62  42  47 S16       29.73S
BRANSON        CLOUDY    59  39  47 SE20      29.76F
NEVADA         DRIZZLE   61  48  63 S16G23    29.67R
JOPLIN         TSTM      64  52  64 S18       29.68R
WEST PLAINS    MOCLDY    55  37  50 SE9       29.86S
MALDEN         MOCLDY    50  43  76 SE3       29.92S

$$

IAZ060-094-KSZ022-034>040-054-083-096-NEZ052-066-093-241300-
...KANSAS...SOUTHEAST NEBRASKA AND IOWA...

CITY           SKY/WX    TMP DP  RH WIND       PRES   REMARKS
TOPEKA         HVY RAIN  59  57  93 N12G24    29.65R FOG
6HR MIN TEMP:  59; 6HR MAX TEMP:  73; 6HR PCP:  0.66;

MANHATTAN      MOCLDY    55  50  84 CALM      29.62F
EMPORIA        LGT RAIN  60  58  92 N10       29.65R FOG
CHANUTE        CLOUDY    68  55  63 S18G31    29.62F
WICHITA        CLOUDY    60  56  86 N15       29.64R
OMAHA          RAIN      49  46  90 W5        29.68R FOG
LINCOLN        LGT RAIN  51  48  89 N10       29.62F FOG
FALLS CITY     TSTM      53  53 100 NW8       29.67F FOG
LAMONI         LGT RAIN  54  46  74 SE13      29.64F
DES MOINES     CLOUDY    51  42  71 SE17      29.64F

$$




USA.gov is the U.S. government's official web portal to all federal, state and local government web resources and services.